Kosmos-2115

operational
NORAD ID: 21029 Int'l Des: 1990-114 Owner: UNKS Country: SU
LEOCIRCULARPOLAR

About Kosmos-2115

Description loading...

Live Position

Loading 3D Globe...

Upcoming Passes

Altitude History

Altitude vs Time

uPlot chart will show altitude changes over time

Two-Line Element Set

1 21029U 90114B 26062.07297421 .00000045 00000-0 18932-3 0 9992
2 21029 82.5644 279.7190 0004388 84.3551 34.0210 12.63530502623007
Epoch: Mar 3, 2026 • Age: 19 hours

Current Status

Altitude 1410.0 km
Velocity 7.16 km/s
Sub-Earth Point 19.49°N, 8.91°E
Launch Date Dec 22, 1990
Age 35.1 years
Type other

Technical Details

Classification Payload
Mass 225.00 kg
Dry Mass 225.00 kg
Total Mass 225.00 kg
Length 1.60 m
Diameter 0.80 m
Span 7.00 m
Shape Cyl + Ant
Manufacturer NPOPM
Bus Type Strela-3
Phase Status In Orbit
Owner/State UNKS/SU

Large Constellations

Loading constellations...